DHL1815 BKPR-LOWW

Flight info

Callsign DHL1815
Flight time 1h 14m
Altitude 32000
Route KUKAD1A KUKAD DCT RETRA DCT GACMO DCT AGLIB DCT OBUTI OBUTI2W
Aircraft A306/H-SDE3FGHIRWY/LB1

Departure

Time 2026-04-20 00:04
Airport Priština Adem Jashari International Airport (BKPR)

Arrival

Time 2026-04-20 01:19
Airport Vienna International Airport (LOWW)
Time Latitude Longitude Altitude Speed Heading
2026-04-19 23:28 42.57355 21.03129 1793 ft 0 kts 266°
2026-04-19 23:48 42.57356 21.03147 1790 ft 4 kts 266°
2026-04-19 23:48 42.57358 21.03184 1790 ft 4 kts 263°
2026-04-19 23:49 42.57363 21.03218 1791 ft 4 kts 240°
2026-04-19 23:49 42.57374 21.03237 1790 ft 2 kts 178°
2026-04-19 23:49 42.57376 21.03237 1790 ft 0 kts 176°
2026-04-19 23:54 42.57364 21.03238 1808 ft 2 kts 174°
2026-04-19 23:55 42.57347 21.03242 1792 ft 3 kts 166°
2026-04-19 23:55 42.57329 21.03270 1797 ft 5 kts 116°
2026-04-19 23:55 42.57317 21.03322 1797 ft 6 kts 124°
2026-04-19 23:55 42.57272 21.03345 1795 ft 8 kts 172°
2026-04-19 23:56 42.57206 21.03352 1794 ft 11 kts 175°
2026-04-19 23:56 42.57113 21.03362 1794 ft 15 kts 175°
2026-04-19 23:56 42.57006 21.03373 1795 ft 14 kts 175°
2026-04-19 23:56 42.56911 21.03383 1795 ft 14 kts 175°
2026-04-19 23:57 42.56810 21.03393 1791 ft 15 kts 175°
2026-04-19 23:57 42.56714 21.03403 1792 ft 13 kts 176°
2026-04-19 23:57 42.56637 21.03411 1793 ft 10 kts 175°
2026-04-19 23:57 42.56575 21.03417 1794 ft 8 kts 176°
2026-04-19 23:58 42.56509 21.03423 1793 ft 12 kts 176°
2026-04-19 23:58 42.56408 21.03433 1794 ft 14 kts 175°
2026-04-19 23:58 42.56327 21.03441 1796 ft 9 kts 175°
2026-04-19 23:58 42.56278 21.03446 1796 ft 5 kts 176°
2026-04-19 23:59 42.56244 21.03449 1799 ft 9 kts 176°
2026-04-19 23:59 42.56178 21.03456 1799 ft 8 kts 175°
2026-04-19 23:59 42.56129 21.03461 1800 ft 6 kts 175°
2026-04-19 23:59 42.56051 21.03470 1802 ft 16 kts 175°
2026-04-20 00:00 42.56040 21.03471 1802 ft 16 kts 175°
2026-04-20 00:00 42.55989 21.03477 1803 ft 15 kts 175°
2026-04-20 00:01 42.55898 21.03486 1805 ft 12 kts 176°
2026-04-20 00:01 42.55826 21.03502 1805 ft 9 kts 152°
2026-04-20 00:01 42.55808 21.03641 1808 ft 8 kts 86°
2026-04-20 00:02 42.55822 21.03704 1805 ft 7 kts 60°
2026-04-20 00:02 42.55904 21.03729 1806 ft 20 kts 356°
2026-04-20 00:02 42.56210 21.03699 1798 ft 75 kts 355°
2026-04-20 00:02 42.56935 21.03623 1794 ft 131 kts 355°
2026-04-20 00:03 42.58009 21.03517 1805 ft 178 kts 358°
2026-04-20 00:03 42.59348 21.03368 2077 ft 205 kts 358°
2026-04-20 00:03 42.60799 21.03239 2350 ft 206 kts 358°
2026-04-20 00:03 42.62164 21.03107 2257 ft 186 kts 358°
2026-04-20 00:04 42.63377 21.02842 2143 ft 169 kts 343°
2026-04-20 00:04 42.64452 21.02044 2326 ft 193 kts 322°
2026-04-20 00:04 42.65410 21.00471 2388 ft 240 kts 302°
2026-04-20 00:04 42.66291 20.98444 2869 ft 259 kts 300°
2026-04-20 00:05 42.67231 20.96403 3987 ft 246 kts 300°
2026-04-20 00:05 42.68154 20.94521 5229 ft 233 kts 301°
2026-04-20 00:05 42.69059 20.92711 6260 ft 229 kts 300°
2026-04-20 00:05 42.69555 20.90692 7018 ft 230 kts 268°
2026-04-20 00:06 42.69054 20.88561 7446 ft 252 kts 233°
2026-04-20 00:06 42.67664 20.86990 8021 ft 268 kts 213°
2026-04-20 00:06 42.66058 20.85648 8768 ft 274 kts 213°
2026-04-20 00:06 42.64437 20.84225 9584 ft 279 kts 215°
2026-04-20 00:07 42.62830 20.82725 10344 ft 284 kts 217°
2026-04-20 00:07 42.61316 20.80945 10734 ft 300 kts 230°
2026-04-20 00:07 42.60211 20.78468 11032 ft 317 kts 252°
2026-04-20 00:07 42.59967 20.75442 11317 ft 333 kts 275°
2026-04-20 00:08 42.60386 20.72274 11615 ft 349 kts 285°
2026-04-20 00:08 42.61149 20.69075 11917 ft 363 kts 290°
2026-04-20 00:08 42.62081 20.65831 12370 ft 372 kts 292°
2026-04-20 00:08 42.63058 20.62556 12992 ft 375 kts 292°
2026-04-20 00:09 42.64011 20.59280 13634 ft 378 kts 291°
2026-04-20 00:09 42.64945 20.55928 14257 ft 381 kts 290°
2026-04-20 00:09 42.65854 20.52533 14823 ft 384 kts 290°
2026-04-20 00:09 42.66748 20.49101 15404 ft 387 kts 289°
2026-04-20 00:10 42.67639 20.45621 15978 ft 390 kts 289°
2026-04-20 00:10 42.68531 20.42116 16556 ft 393 kts 289°
2026-04-20 00:10 42.69417 20.38623 17113 ft 396 kts 289°
2026-04-20 00:10 42.70321 20.35060 17659 ft 400 kts 289°
2026-04-20 00:11 42.71233 20.31466 18201 ft 403 kts 289°
2026-04-20 00:11 42.72151 20.27850 18633 ft 406 kts 289°
2026-04-20 00:11 42.73078 20.24197 19067 ft 409 kts 289°
2026-04-20 00:11 42.74010 20.20520 19511 ft 412 kts 289°
2026-04-20 00:12 42.74938 20.16859 19941 ft 415 kts 289°
2026-04-20 00:12 42.75882 20.13130 20365 ft 417 kts 289°
2026-04-20 00:12 42.76827 20.09388 20791 ft 420 kts 289°
2026-04-20 00:12 42.77780 20.05606 21205 ft 423 kts 289°
2026-04-20 00:13 42.78737 20.01800 21620 ft 426 kts 289°
2026-04-20 00:13 42.79701 19.97957 22042 ft 428 kts 289°
2026-04-20 00:13 42.80653 19.94161 22442 ft 431 kts 289°
2026-04-20 00:13 42.81624 19.90282 22844 ft 434 kts 289°
2026-04-20 00:14 42.82603 19.86365 23237 ft 436 kts 289°
2026-04-20 00:14 42.83582 19.82439 23599 ft 439 kts 289°
2026-04-20 00:14 42.84567 19.78483 23928 ft 441 kts 289°
2026-04-20 00:14 42.85551 19.74523 24269 ft 442 kts 289°
2026-04-20 00:15 42.86524 19.70604 24593 ft 443 kts 289°
2026-04-20 00:15 42.87512 19.66612 24931 ft 444 kts 289°
2026-04-20 00:15 42.88502 19.62607 25254 ft 445 kts 289°
2026-04-20 00:15 42.89493 19.58597 25575 ft 446 kts 289°
2026-04-20 00:16 42.90484 19.54578 25876 ft 448 kts 289°
2026-04-20 00:16 42.91477 19.50541 26169 ft 449 kts 289°
2026-04-20 00:16 42.92472 19.46488 26468 ft 450 kts 289°
2026-04-20 00:16 42.93471 19.42420 26727 ft 452 kts 289°
2026-04-20 00:17 42.94455 19.38400 26992 ft 453 kts 289°
2026-04-20 00:17 42.95452 19.34319 27367 ft 452 kts 289°
2026-04-20 00:17 42.96441 19.30258 27777 ft 450 kts 289°
2026-04-20 00:17 42.97429 19.26199 28188 ft 448 kts 289°
2026-04-20 00:18 42.98409 19.22162 28595 ft 446 kts 289°
2026-04-20 00:18 42.99372 19.18192 28990 ft 445 kts 289°
2026-04-20 00:18 43.00341 19.14188 29371 ft 443 kts 289°
2026-04-20 00:18 43.01309 19.10184 29747 ft 442 kts 289°
2026-04-20 00:19 43.02275 19.06185 30129 ft 441 kts 289°
2026-04-20 00:19 43.03233 19.02207 30446 ft 440 kts 289°
2026-04-20 00:19 43.04190 18.98230 30786 ft 438 kts 289°
2026-04-20 00:19 43.05137 18.94281 31114 ft 437 kts 288°
2026-04-20 00:20 43.06069 18.90392 31437 ft 435 kts 288°
2026-04-20 00:20 43.07009 18.86464 31773 ft 434 kts 289°
2026-04-20 00:20 43.07945 18.82546 32039 ft 434 kts 288°
2026-04-20 00:21 43.09815 18.74693 32084 ft 433 kts 288°
2026-04-20 00:21 43.11681 18.66850 32081 ft 433 kts 289°
2026-04-20 00:22 43.14318 18.59502 32083 ft 433 kts 304°
2026-04-20 00:22 43.18452 18.53497 32081 ft 436 kts 321°
2026-04-20 00:23 43.23703 18.49263 32078 ft 439 kts 330°
2026-04-20 00:23 43.29197 18.45530 32078 ft 440 kts 332°
2026-04-20 00:24 43.34669 18.41877 32074 ft 440 kts 332°
2026-04-20 00:24 43.40169 18.38149 32071 ft 439 kts 331°
2026-04-20 00:25 43.45655 18.34390 32062 ft 439 kts 331°
2026-04-20 00:25 43.51088 18.30652 32057 ft 439 kts 331°
2026-04-20 00:26 43.56568 18.26873 32045 ft 439 kts 331°
2026-04-20 00:26 43.62034 18.23100 32036 ft 439 kts 331°
2026-04-20 00:27 43.67473 18.19336 32031 ft 439 kts 331°
2026-04-20 00:27 43.72934 18.15547 32028 ft 439 kts 331°
2026-04-20 00:28 43.78390 18.11756 32025 ft 438 kts 331°
2026-04-20 00:28 43.83840 18.07963 32030 ft 438 kts 331°
2026-04-20 00:29 43.89280 18.04174 32031 ft 438 kts 331°
2026-04-20 00:29 43.94719 18.00371 32034 ft 437 kts 330°
2026-04-20 00:30 44.00117 17.96587 32042 ft 437 kts 330°
2026-04-20 00:30 44.05563 17.92761 32037 ft 437 kts 330°
2026-04-20 00:31 44.10999 17.88937 32038 ft 437 kts 330°
2026-04-20 00:31 44.16396 17.85132 32038 ft 436 kts 330°
2026-04-20 00:32 44.21814 17.81305 32047 ft 436 kts 330°
2026-04-20 00:32 44.27216 17.77483 32047 ft 436 kts 329°
2026-04-20 00:33 44.32636 17.73638 32048 ft 436 kts 330°
2026-04-20 00:33 44.38044 17.69791 32045 ft 436 kts 330°
2026-04-20 00:34 44.43423 17.65961 32043 ft 436 kts 330°
2026-04-20 00:34 44.48840 17.62096 32044 ft 436 kts 330°
2026-04-20 00:35 44.54220 17.58250 32046 ft 436 kts 329°
2026-04-20 00:35 44.59637 17.54368 32046 ft 436 kts 329°
2026-04-20 00:36 44.65052 17.50476 32045 ft 436 kts 329°
2026-04-20 00:36 44.70434 17.46603 32046 ft 436 kts 329°
2026-04-20 00:37 44.75851 17.42695 32043 ft 437 kts 329°
2026-04-20 00:37 44.81236 17.38803 32051 ft 437 kts 329°
2026-04-20 00:38 44.86651 17.34881 32050 ft 437 kts 329°
2026-04-20 00:38 44.92078 17.30939 32047 ft 437 kts 329°
2026-04-20 00:39 44.97491 17.27000 32049 ft 438 kts 329°
2026-04-20 00:39 45.02877 17.23074 32049 ft 438 kts 329°
2026-04-20 00:40 45.08294 17.19116 32047 ft 438 kts 329°
2026-04-20 00:40 45.13725 17.15158 32044 ft 438 kts 330°
2026-04-20 00:41 45.19214 17.11352 32040 ft 439 kts 330°
2026-04-20 00:41 45.24672 17.07582 32044 ft 438 kts 330°
2026-04-20 00:42 45.30165 17.03776 32043 ft 438 kts 330°
2026-04-20 00:42 45.35648 16.99968 32042 ft 438 kts 330°
2026-04-20 00:43 45.41093 16.96176 32042 ft 438 kts 330°
2026-04-20 00:43 45.46576 16.92349 32047 ft 437 kts 330°
2026-04-20 00:44 45.52047 16.88523 32049 ft 437 kts 330°
2026-04-20 00:44 45.57476 16.84719 32047 ft 437 kts 330°
2026-04-20 00:45 45.62941 16.80879 32046 ft 437 kts 330°
2026-04-20 00:45 45.68405 16.77033 32051 ft 437 kts 330°
2026-04-20 00:46 45.73823 16.73211 32048 ft 437 kts 330°
2026-04-20 00:46 45.79278 16.69354 32055 ft 437 kts 330°
2026-04-20 00:47 45.84736 16.65487 32054 ft 436 kts 329°
2026-04-20 00:47 45.90150 16.61642 32057 ft 436 kts 329°
2026-04-20 00:48 45.94713 16.58395 32059 ft 436 kts 329°
2026-04-20 00:48 46.00122 16.54539 32054 ft 436 kts 329°
2026-04-20 00:49 46.05556 16.50656 32055 ft 436 kts 329°
2026-04-20 00:49 46.11005 16.46753 32057 ft 436 kts 329°
2026-04-20 00:50 46.16419 16.42866 32054 ft 437 kts 329°
2026-04-20 00:50 46.21864 16.38951 32057 ft 438 kts 329°
2026-04-20 00:51 46.27323 16.35015 32060 ft 438 kts 329°
2026-04-20 00:51 46.32782 16.31071 32062 ft 439 kts 329°
2026-04-20 00:52 46.38378 16.27461 32057 ft 446 kts 340°
2026-04-20 00:52 46.44513 16.25780 32064 ft 450 kts 346°
2026-04-20 00:53 46.50669 16.24358 32066 ft 451 kts 346°
2026-04-20 00:53 46.56869 16.22901 32067 ft 451 kts 346°
2026-04-20 00:54 46.63074 16.21430 32066 ft 451 kts 346°
2026-04-20 00:54 46.69288 16.19951 32067 ft 452 kts 346°
2026-04-20 00:55 46.75466 16.18476 31997 ft 451 kts 346°
2026-04-20 00:55 46.78561 16.17737 31315 ft 449 kts 346°
2026-04-20 00:55 46.81658 16.16995 30471 ft 451 kts 346°
2026-04-20 00:55 46.84773 16.16247 29487 ft 453 kts 346°
2026-04-20 00:56 46.87895 16.15497 28408 ft 456 kts 346°
2026-04-20 00:56 46.91043 16.14740 27254 ft 461 kts 346°
2026-04-20 00:56 46.94198 16.13981 26466 ft 458 kts 346°
2026-04-20 00:56 46.97318 16.13235 25881 ft 451 kts 346°
2026-04-20 00:57 47.00399 16.12494 25256 ft 445 kts 346°
2026-04-20 00:57 47.03405 16.11769 24631 ft 441 kts 346°
2026-04-20 00:57 47.06416 16.11041 24014 ft 437 kts 346°
2026-04-20 00:57 47.09404 16.10317 23339 ft 433 kts 346°
2026-04-20 00:58 47.12364 16.09599 22677 ft 428 kts 346°
2026-04-20 00:58 47.15288 16.08891 22088 ft 423 kts 346°
2026-04-20 00:58 47.18171 16.08191 21500 ft 418 kts 346°
2026-04-20 00:58 47.21028 16.07497 20906 ft 413 kts 346°
2026-04-20 00:59 47.23859 16.06807 20323 ft 410 kts 346°
2026-04-20 00:59 47.26663 16.06123 19747 ft 407 kts 346°
2026-04-20 00:59 47.29450 16.05443 19171 ft 405 kts 346°
2026-04-20 00:59 47.32221 16.04766 18589 ft 403 kts 346°
2026-04-20 01:00 47.34961 16.04150 17948 ft 404 kts 350°
2026-04-20 01:00 47.37791 16.04270 17615 ft 412 kts
2026-04-20 01:00 47.40592 16.05352 17308 ft 420 kts 13°
2026-04-20 01:00 47.43375 16.06722 16933 ft 419 kts 15°
2026-04-20 01:01 47.46133 16.08117 16574 ft 417 kts 15°
2026-04-20 01:01 47.48876 16.09500 16229 ft 414 kts 15°
2026-04-20 01:01 47.51562 16.10849 15885 ft 412 kts 15°
2026-04-20 01:01 47.54309 16.12219 15538 ft 409 kts 14°
2026-04-20 01:02 47.56962 16.13544 15180 ft 407 kts 14°
2026-04-20 01:02 47.59649 16.14883 14859 ft 405 kts 14°
2026-04-20 01:02 47.62317 16.16214 14521 ft 403 kts 15°
2026-04-20 01:02 47.64965 16.17539 14159 ft 400 kts 14°
2026-04-20 01:03 47.67597 16.18851 13829 ft 398 kts 14°
2026-04-20 01:03 47.70220 16.20165 13474 ft 396 kts 14°
2026-04-20 01:03 47.72778 16.21454 13206 ft 386 kts 14°
2026-04-20 01:03 47.75263 16.22780 12956 ft 375 kts 19°
2026-04-20 01:04 47.77471 16.24798 12645 ft 373 kts 37°
2026-04-20 01:04 47.79303 16.27475 12342 ft 366 kts 43°
2026-04-20 01:04 47.81017 16.30224 12029 ft 358 kts 43°
2026-04-20 01:04 47.82684 16.32918 11725 ft 350 kts 43°
2026-04-20 01:05 47.84317 16.35549 11429 ft 342 kts 43°
2026-04-20 01:05 47.85923 16.38130 11137 ft 335 kts 42°
2026-04-20 01:05 47.87471 16.40673 10838 ft 331 kts 46°
2026-04-20 01:05 47.88605 16.43596 10569 ft 333 kts 65°
2026-04-20 01:06 47.89291 16.46872 10296 ft 330 kts 73°
2026-04-20 01:06 47.89433 16.50275 9974 ft 331 kts 99°
2026-04-20 01:06 47.88559 16.53385 9640 ft 326 kts 129°
2026-04-20 01:06 47.86854 16.55481 9245 ft 314 kts 160°
2026-04-20 01:07 47.84816 16.56493 8985 ft 304 kts 170°
2026-04-20 01:07 47.82780 16.57281 8735 ft 300 kts 171°
2026-04-20 01:07 47.80822 16.58044 8537 ft 281 kts 171°
2026-04-20 01:07 47.78974 16.58778 8344 ft 279 kts 171°
2026-04-20 01:08 47.77091 16.59533 8089 ft 279 kts 171°
2026-04-20 01:08 47.75214 16.60296 7851 ft 279 kts 170°
2026-04-20 01:08 47.73343 16.61063 7576 ft 279 kts 170°
2026-04-20 01:08 47.71470 16.61835 7293 ft 278 kts 170°
2026-04-20 01:09 47.69630 16.62656 7068 ft 282 kts 162°
2026-04-20 01:09 47.68017 16.64317 6795 ft 287 kts 129°
2026-04-20 01:09 47.67227 16.66970 6558 ft 282 kts 92°
2026-04-20 01:09 47.67426 16.69784 6363 ft 272 kts 68°
2026-04-20 01:10 47.68160 16.72313 6097 ft 260 kts 46°
2026-04-20 01:10 47.70994 16.74636 5707 ft 225 kts 353°
2026-04-20 01:10 47.72522 16.74366 5523 ft 219 kts 342°
2026-04-20 01:11 47.73982 16.73818 5399 ft 217 kts 339°
2026-04-20 01:11 47.75436 16.73184 5401 ft 217 kts 339°
2026-04-20 01:11 47.76887 16.72556 5402 ft 218 kts 339°
2026-04-20 01:11 47.78351 16.71950 5404 ft 218 kts 340°
2026-04-20 01:12 47.79813 16.71346 5408 ft 218 kts 339°
2026-04-20 01:12 47.81254 16.70744 5405 ft 218 kts 339°
2026-04-20 01:12 47.82711 16.70133 5452 ft 216 kts 339°
2026-04-20 01:12 47.84163 16.69525 5484 ft 216 kts 339°
2026-04-20 01:13 47.85620 16.68914 5464 ft 218 kts 339°
2026-04-20 01:13 47.87085 16.68300 5265 ft 218 kts 339°
2026-04-20 01:13 47.88528 16.67696 4944 ft 213 kts 340°
2026-04-20 01:13 47.89923 16.67111 4589 ft 209 kts 340°
2026-04-20 01:14 47.91312 16.66528 4246 ft 203 kts 340°
2026-04-20 01:14 47.92626 16.65977 3963 ft 191 kts 339°
2026-04-20 01:14 47.93886 16.65446 3705 ft 185 kts 339°
2026-04-20 01:14 47.95108 16.64931 3478 ft 180 kts 340°
2026-04-20 01:15 47.96305 16.64429 3244 ft 179 kts 340°
2026-04-20 01:15 47.97496 16.63923 2992 ft 175 kts 340°
2026-04-20 01:15 47.98632 16.63447 2748 ft 164 kts 340°
2026-04-20 01:15 47.99677 16.63011 2568 ft 147 kts 339°
2026-04-20 01:16 48.00604 16.62623 2350 ft 130 kts 338°
2026-04-20 01:16 48.01435 16.62280 2123 ft 122 kts 338°
2026-04-20 01:16 48.02251 16.61930 2068 ft 121 kts 339°
2026-04-20 01:16 48.03063 16.61583 1847 ft 123 kts 339°
2026-04-20 01:17 48.03878 16.61241 1696 ft 121 kts 340°
2026-04-20 01:17 48.04702 16.60892 1545 ft 126 kts 339°
2026-04-20 01:17 48.05567 16.60517 1389 ft 136 kts 339°
2026-04-20 01:17 48.06472 16.60148 1187 ft 134 kts 342°
2026-04-20 01:18 48.07377 16.59763 947 ft 136 kts 340°
2026-04-20 01:18 48.08277 16.59379 735 ft 132 kts 342°
2026-04-20 01:18 48.09141 16.59021 637 ft 122 kts 341°
2026-04-20 01:18 48.09847 16.58716 626 ft 84 kts 344°
2026-04-20 01:19 48.10182 16.58578 623 ft 24 kts 344°
2026-04-20 01:19 48.10327 16.58504 623 ft 21 kts 329°
2026-04-20 01:19 48.10429 16.58344 627 ft 22 kts 299°
2026-04-20 01:19 48.10518 16.58160 630 ft 21 kts 327°
2026-04-20 01:20 48.10652 16.58098 626 ft 19 kts 343°
2026-04-20 01:20 48.10776 16.58046 626 ft 18 kts 344°
2026-04-20 01:20 48.10892 16.57997 626 ft 17 kts 343°
2026-04-20 01:20 48.10992 16.57879 630 ft 20 kts 313°
2026-04-20 01:21 48.11100 16.57771 621 ft 18 kts 349°
2026-04-20 01:21 48.11175 16.57658 627 ft 15 kts 297°
2026-04-20 01:21 48.11226 16.57501 623 ft 18 kts 296°
2026-04-20 01:21 48.11280 16.57340 626 ft 17 kts 296°
2026-04-20 01:22 48.11331 16.57181 627 ft 19 kts 296°
2026-04-20 01:22 48.11395 16.56986 620 ft 23 kts 296°
2026-04-20 01:22 48.11470 16.56755 627 ft 26 kts 295°
2026-04-20 01:22 48.11549 16.56513 627 ft 25 kts 296°
2026-04-20 01:23 48.11610 16.56324 626 ft 19 kts 296°
2026-04-20 01:23 48.11666 16.56156 626 ft 17 kts 296°
2026-04-20 01:23 48.11715 16.56000 622 ft 16 kts 296°
2026-04-20 01:23 48.11763 16.55858 627 ft 14 kts 296°
2026-04-20 01:24 48.11807 16.55722 625 ft 16 kts 295°
2026-04-20 01:24 48.11855 16.55575 627 ft 15 kts 296°
2026-04-20 01:24 48.11890 16.55436 619 ft 14 kts 288°
2026-04-20 01:24 48.11927 16.55314 623 ft 12 kts 295°
2026-04-20 01:25 48.11963 16.55205 627 ft 11 kts 296°
2026-04-20 01:25 48.12005 16.55078 623 ft 15 kts 296°
2026-04-20 01:25 48.12064 16.55002 626 ft 9 kts 14°
2026-04-20 01:25 48.12105 16.55044 615 ft 5 kts 26°
2026-04-20 01:26 48.12115 16.55051 626 ft 0 kts 26°
2026-04-20 01:26 48.12116 16.55052 626 ft 0 kts 26°